User: anonymous   Login
Location: Berbisdorf
(50.7638°N, 12.9442°E)
Time: 02:37:59
(UTC+00:00)
Language:

SL-16 R/B - Orbit

View from above orbital plane
View from above orbital plane
View from above satellite
View from above satellite

Ground track
Ground track

The orbit data is extracted from the following two-line orbital elements,

1 27006U 01056F   20221.48019980 -.00000044 +00000-0 +36396-6 0  9995
2 27006 099.4798 352.1671 0014331 203.3374 199.3947 13.70965400933756
Epoch (UTC): 08 August 2020 11:31:29
Eccentricity: 0.0014331
inclination: 99.4798°
perigee height: 985 km
apogee height: 1006 km
right ascension of ascending node: 352.1671°
argument of perigee: 203.3374°
revolutions per day: 13.70965400
mean anomaly at epoch: 199.3947°
orbit number at epoch: 93375

The dashed part of the orbit path shows where the satellite is in the earth's shadow,  

DLR